Kt Birdie — 3FUJ7 — position and weather

sailwx.info

Track history (hours):
 
Tides and Currents Weather Stations Pressure Air Temp Water Temp Dewpoint Dewpoint Depression Visibility Wind Speed Wind Dir Waves Ship Positions

Kt Birdie

Last reported at 2014-Aug-29 04:26 UTC. Time now 2014-Aug-29 05:33 UTC.
Position S 33°00' E 151°50'.

Length 225 m; draft 7.2 m.

Type: Cargo ship. MMSI: 354803000.

Date/timePositionNaut miles runAvg speedWind from/ knotsBaromVisibWave heightAir tempDewpointWater temp
2014-Aug-29 04:26S 33°00' E 151°50'8 0.1
2014-Aug-27 00:33S 33°08' E 151°51'1211.6
2014-Aug-26 23:33S 33°01' E 152°02'7 6.5
2014-Aug-26 22:33S 32°57' E 152°09'2 2.1
2014-Aug-26 21:33S 32°59' E 152°11'2 1.9
2014-Aug-26 20:34S 33°00' E 152°12'8 8.2
2014-Aug-26 19:33S 33°03' E 152°03'2 2.4
2014-Aug-26 18:33S 33°05' E 152°03'2 2.1
2014-Aug-26 17:33S 33°06' E 152°05'4 4.5
2014-Aug-26 16:33S 33°10' E 152°03'9 8.9
2014-Aug-26 15:32S 33°16' E 151°54'4 0.8
2014-Aug-26 10:31S 33°15' E 151°59'3 2.7
2014-Aug-26 09:32S 33°14' E 152°02'3 2.4
2014-Aug-26 08:17S 33°13' E 152°05'2 2.1
2014-Aug-26 07:31S 33°13' E 152°07'2 2.0
2014-Aug-26 06:31S 33°11' E 152°09'2 2.0
2014-Aug-26 05:24S 33°12' E 152°06'5 5.9
2014-Aug-26 04:33S 33°13' E 152°00'5 1.0
2014-Aug-25 23:21S 33°09' E 151°58'3 4.1
2014-Aug-25 22:33S 33°05' E 151°58'9 9.0
2014-Aug-25 21:33S 32°57' E 152°01'1313.1
2014-Aug-25 20:33S 32°55' E 152°16'1312.8
2014-Aug-25 19:33S 32°46' E 152°28'1413.8
2014-Aug-25 18:33S 32°37' E 152°40'33511.2
2014-Aug-24 12:33S 27°11' E 154°06'1010.3
2014-Aug-24 11:33S 27°00' E 154°06'  
Track history (hours):
 
Tides and Currents Weather Stations Pressure Air Temp Water Temp Dewpoint Dewpoint Depression Visibility Wind Speed Wind Dir Waves Ship Positions

Kt Birdie

Last reported at 2014-Aug-29 04:26 UTC. Time now 2014-Aug-29 05:33 UTC.
Position S 33°00' E 151°50'.

Length 225 m; draft 7.2 m.

Type: Cargo ship. MMSI: 354803000.

Date/timePositionNaut miles runAvg speedWind from/ knotsBaromVisibWave heightAir tempDewpointWater temp
2014-Aug-29 04:26S 33°00' E 151°50'8 0.1
2014-Aug-27 00:33S 33°08' E 151°51'1211.6
2014-Aug-26 23:33S 33°01' E 152°02'7 6.5
2014-Aug-26 22:33S 32°57' E 152°09'2 2.1
2014-Aug-26 21:33S 32°59' E 152°11'2 1.9
2014-Aug-26 20:34S 33°00' E 152°12'8 8.2
2014-Aug-26 19:33S 33°03' E 152°03'2 2.4
2014-Aug-26 18:33S 33°05' E 152°03'2 2.1
2014-Aug-26 17:33S 33°06' E 152°05'4 4.5
2014-Aug-26 16:33S 33°10' E 152°03'9 8.9
2014-Aug-26 15:32S 33°16' E 151°54'4 0.8
2014-Aug-26 10:31S 33°15' E 151°59'3 2.7
2014-Aug-26 09:32S 33°14' E 152°02'3 2.4
2014-Aug-26 08:17S 33°13' E 152°05'2 2.1
2014-Aug-26 07:31S 33°13' E 152°07'2 2.0
2014-Aug-26 06:31S 33°11' E 152°09'2 2.0
2014-Aug-26 05:24S 33°12' E 152°06'5 5.9
2014-Aug-26 04:33S 33°13' E 152°00'5 1.0
2014-Aug-25 23:21S 33°09' E 151°58'3 4.1
2014-Aug-25 22:33S 33°05' E 151°58'9 9.0
2014-Aug-25 21:33S 32°57' E 152°01'1313.1
2014-Aug-25 20:33S 32°55' E 152°16'1312.8
2014-Aug-25 19:33S 32°46' E 152°28'1413.8
2014-Aug-25 18:33S 32°37' E 152°40'33511.2
2014-Aug-24 12:33S 27°11' E 154°06'1010.3
2014-Aug-24 11:33S 27°00' E 154°06'  

Dump ship's entire track history